timestamp,wind_dir_avg,wind_spd_avg,wind_spd_max_dir,wind_spd_gust,battery_voltage,lat,long
2023-08-18 00:04:00+00:00,237.0,5.89,235.0,6.96,12.57,47.59359,-54.27349
2023-08-18 00:14:00+00:00,236.0,6.66,234.0,7.55,12.41,47.59359,-54.27349
2023-08-18 00:24:00+00:00,230.0,4.93,234.0,5.68,12.41,47.59359,-54.27349
2023-08-18 00:34:00+00:00,232.0,4.76,243.0,5.44,12.41,47.59359,-54.27349
2023-08-18 00:44:00+00:00,244.0,5.05,252.0,5.74,12.41,47.59359,-54.27349
2023-08-18 00:54:00+00:00,248.0,4.87,248.0,5.44,12.41,47.59359,-54.27349
2023-08-18 01:04:00+00:00,231.0,3.37,241.0,4.21,12.41,47.59359,-54.27349
2023-08-18 01:14:00+00:00,227.0,4.16,239.0,4.88,12.41,47.59359,-54.27349
2023-08-18 01:24:00+00:00,230.0,4.17,230.0,4.88,12.41,47.59359,-54.27349
2023-08-18 01:34:00+00:00,233.0,5.32,240.0,6.47,12.41,47.59359,-54.27349
2023-08-18 01:44:00+00:00,229.0,3.93,228.0,4.92,12.41,47.59359,-54.27349
2023-08-18 01:54:00+00:00,242.0,6.06,244.0,6.39,12.41,47.59359,-54.27349
2023-08-18 02:04:00+00:00,246.0,6.03,245.0,6.58,12.41,47.59359,-54.27349
2023-08-18 02:14:01+00:00,242.0,4.57,244.0,5.29,12.41,47.59359,-54.27349
2023-08-18 02:24:01+00:00,239.0,5.04,238.0,5.32,12.41,47.59359,-54.27349
2023-08-18 02:34:01+00:00,242.0,4.31,248.0,5.15,12.41,47.59359,-54.27349
2023-08-18 02:44:01+00:00,234.0,4.21,238.0,4.9,12.41,47.59359,-54.27349
2023-08-18 02:54:01+00:00,239.0,3.21,232.0,3.91,12.41,47.59359,-54.27349
2023-08-18 03:04:01+00:00,232.0,3.51,235.0,4.03,12.41,47.59359,-54.27349
2023-08-18 03:14:00+00:00,230.0,4.29,232.0,4.88,12.41,47.59359,-54.27349
2023-08-18 03:24:00+00:00,232.0,4.19,232.0,4.73,12.41,47.59359,-54.27349
2023-08-18 03:34:00+00:00,237.0,4.47,233.0,5.18,12.41,47.59359,-54.27349
2023-08-18 03:44:00+00:00,228.0,4.18,236.0,4.76,12.41,47.59359,-54.27349
2023-08-18 03:54:00+00:00,233.0,4.6,237.0,5.46,12.41,47.59359,-54.27349
2023-08-18 04:04:00+00:00,233.0,3.98,239.0,5.23,12.41,47.59359,-54.27349
2023-08-18 04:14:01+00:00,234.0,2.86,236.0,3.32,12.41,47.59359,-54.27349
2023-08-18 04:24:01+00:00,248.0,3.93,248.0,4.58,12.41,47.59359,-54.27349
2023-08-18 04:34:01+00:00,255.0,3.69,255.0,4.14,12.41,47.59359,-54.27349
2023-08-18 04:44:01+00:00,245.0,3.55,246.0,4.0,12.41,47.59359,-54.27349
2023-08-18 04:54:01+00:00,251.0,4.47,252.0,4.73,12.41,47.59359,-54.27349
2023-08-18 05:04:01+00:00,250.0,4.52,252.0,4.9,12.41,47.59359,-54.27349
2023-08-18 05:14:00+00:00,251.0,4.2,255.0,4.63,12.33,47.59359,-54.27349
2023-08-18 05:24:00+00:00,247.0,4.2,247.0,4.42,12.33,47.59359,-54.27349
2023-08-18 05:34:00+00:00,245.0,3.7,250.0,4.15,12.33,47.59359,-54.27349
2023-08-18 05:44:00+00:00,264.0,4.02,265.0,4.99,12.33,47.59359,-54.27349
2023-08-18 05:54:00+00:00,292.0,3.16,292.0,3.84,12.33,47.59359,-54.27349
2023-08-18 06:04:00+00:00,298.0,4.0,299.0,4.71,12.33,47.59359,-54.27349
2023-08-18 06:14:00+00:00,277.0,2.04,277.0,2.48,12.33,47.59359,-54.27349
2023-08-18 06:24:00+00:00,281.0,2.2,284.0,2.71,12.33,47.59359,-54.27349
2023-08-18 06:34:00+00:00,261.0,2.45,263.0,3.11,12.33,47.59359,-54.27349
2023-08-18 06:44:00+00:00,250.0,2.02,251.0,2.32,12.33,47.59359,-54.27349
2023-08-18 06:54:00+00:00,257.0,2.0,264.0,2.34,12.33,47.59359,-54.27349
2023-08-18 07:04:00+00:00,239.0,2.21,235.0,2.4,12.33,47.59359,-54.27349
2023-08-18 07:14:01+00:00,227.0,2.13,227.0,2.32,12.33,47.59359,-54.27349
2023-08-18 07:24:01+00:00,231.0,2.15,233.0,2.43,12.33,47.59359,-54.27349
2023-08-18 07:34:01+00:00,248.0,2.87,251.0,3.79,12.33,47.59359,-54.27349
2023-08-18 07:44:01+00:00,253.0,3.1,259.0,3.86,12.33,47.59359,-54.27349
2023-08-18 07:54:01+00:00,243.0,2.52,249.0,2.98,12.33,47.59359,-54.27349
2023-08-18 08:04:01+00:00,231.0,2.56,234.0,2.97,12.33,47.59359,-54.27349
2023-08-18 08:14:00+00:00,226.0,3.57,220.0,4.06,12.33,47.59359,-54.27349
2023-08-18 08:24:00+00:00,221.0,2.63,214.0,3.27,12.33,47.59359,-54.27349
2023-08-18 08:34:00+00:00,232.0,3.81,235.0,4.73,12.33,47.59359,-54.27349
2023-08-18 08:44:00+00:00,220.0,3.46,225.0,4.16,12.33,47.59359,-54.27349
2023-08-18 08:54:00+00:00,233.0,2.97,243.0,3.61,12.33,47.59359,-54.27349
2023-08-18 09:04:00+00:00,215.0,4.18,219.0,4.98,12.33,47.59359,-54.27349
2023-08-18 09:14:00+00:00,214.0,3.41,216.0,4.34,12.25,47.59359,-54.27349
2023-08-18 09:24:00+00:00,210.0,3.58,205.0,4.05,12.25,47.59359,-54.27349
2023-08-18 09:34:00+00:00,213.0,3.28,212.0,3.63,12.25,47.59359,-54.27349
2023-08-18 09:44:00+00:00,222.0,3.66,222.0,4.36,12.25,47.59359,-54.27349
2023-08-18 09:54:00+00:00,213.0,3.28,210.0,3.67,12.25,47.59359,-54.27349
2023-08-18 10:04:00+00:00,222.0,3.83,228.0,4.41,12.25,47.59359,-54.27349
2023-08-18 10:14:00+00:00,241.0,3.72,244.0,4.29,12.89,47.59359,-54.27349
2023-08-18 10:24:00+00:00,222.0,2.83,223.0,3.2,12.89,47.59359,-54.27349
2023-08-18 10:34:00+00:00,203.0,3.36,204.0,3.86,12.89,47.59359,-54.27349
2023-08-18 10:44:00+00:00,209.0,4.64,210.0,5.17,12.89,47.59359,-54.27349
2023-08-18 10:54:00+00:00,207.0,4.55,210.0,5.02,12.89,47.59359,-54.27349
2023-08-18 11:04:00+00:00,203.0,4.45,204.0,4.8,12.89,47.59359,-54.27349
2023-08-18 11:14:01+00:00,207.0,4.57,210.0,5.12,13.68,47.59359,-54.27349
2023-08-18 11:24:01+00:00,210.0,4.56,210.0,4.92,13.68,47.59359,-54.27349
2023-08-18 11:34:01+00:00,201.0,4.41,201.0,4.98,13.68,47.59359,-54.27349
2023-08-18 11:44:01+00:00,200.0,5.23,204.0,5.61,13.68,47.59359,-54.27349
2023-08-18 11:54:01+00:00,197.0,5.63,196.0,5.93,13.68,47.59359,-54.27349
2023-08-18 12:04:01+00:00,208.0,5.25,208.0,5.91,13.68,47.59359,-54.27349
2023-08-18 12:14:00+00:00,209.0,5.67,210.0,6.47,14.24,47.59359,-54.27349
2023-08-18 12:24:00+00:00,215.0,6.95,229.0,8.36,14.24,47.59359,-54.27349
2023-08-18 12:34:00+00:00,211.0,7.28,225.0,8.95,14.24,47.59359,-54.27349
2023-08-18 12:44:00+00:00,215.0,7.86,232.0,10.75,14.24,47.59359,-54.27349
2023-08-18 12:54:00+00:00,205.0,6.56,203.0,7.14,14.24,47.59359,-54.27349
2023-08-18 13:04:00+00:00,204.0,5.17,203.0,5.9,14.24,47.59359,-54.27349
2023-08-18 13:14:01+00:00,213.0,4.59,215.0,5.28,14.32,47.59359,-54.27349
2023-08-18 13:24:01+00:00,219.0,4.85,231.0,5.92,14.32,47.59359,-54.27349
2023-08-18 13:34:01+00:00,215.0,4.3,215.0,4.95,14.32,47.59359,-54.27349
2023-08-18 13:44:01+00:00,201.0,4.84,204.0,5.25,14.32,47.59359,-54.27349
2023-08-18 13:54:01+00:00,210.0,6.05,212.0,6.84,14.32,47.59359,-54.27349
2023-08-18 14:04:01+00:00,209.0,6.05,218.0,6.94,14.32,47.59359,-54.27349
2023-08-18 14:14:00+00:00,210.0,6.39,227.0,8.4,14.32,47.59359,-54.27349
2023-08-18 14:24:00+00:00,207.0,6.42,224.0,7.7,14.32,47.59359,-54.27349
2023-08-18 14:34:00+00:00,212.0,6.44,227.0,8.05,14.32,47.59359,-54.27349
2023-08-18 14:44:00+00:00,205.0,6.78,199.0,7.91,14.32,47.59359,-54.27349
2023-08-18 14:54:00+00:00,220.0,8.95,231.0,11.3,14.32,47.59359,-54.27349
2023-08-18 15:04:00+00:00,211.0,7.4,225.0,8.96,14.32,47.59359,-54.27349
2023-08-18 15:14:00+00:00,217.0,8.47,230.0,10.93,14.32,47.59359,-54.27349
2023-08-18 15:24:00+00:00,215.0,8.92,226.0,11.33,14.32,47.59359,-54.27349
2023-08-18 15:34:00+00:00,218.0,8.83,232.0,11.34,14.32,47.59359,-54.27349
2023-08-18 15:44:00+00:00,231.0,10.87,231.0,12.18,14.32,47.59359,-54.27349
2023-08-18 15:54:00+00:00,227.0,10.17,231.0,11.72,14.32,47.59359,-54.27349
2023-08-18 16:04:00+00:00,224.0,9.78,234.0,11.62,14.32,47.59359,-54.27349
2023-08-18 16:14:01+00:00,229.0,10.1,233.0,11.6,13.6,47.59359,-54.27349
2023-08-18 16:24:01+00:00,209.0,8.0,222.0,9.3,13.6,47.59359,-54.27349
2023-08-18 16:34:01+00:00,208.0,8.42,225.0,11.01,13.6,47.59359,-54.27349
2023-08-18 16:44:01+00:00,221.0,9.74,226.0,11.36,13.6,47.59359,-54.27349
2023-08-18 16:54:01+00:00,228.0,10.93,230.0,11.92,13.6,47.59359,-54.27349
2023-08-18 17:04:01+00:00,220.0,8.3,233.0,10.98,13.6,47.59359,-54.27349
2023-08-18 17:14:00+00:00,221.0,9.09,231.0,11.42,13.6,47.59359,-54.27349
2023-08-18 17:24:00+00:00,224.0,11.08,225.0,11.93,13.6,47.59359,-54.27349
2023-08-18 17:34:00+00:00,207.0,7.91,225.0,9.38,13.6,47.59359,-54.27349
2023-08-18 17:44:00+00:00,219.0,9.12,230.0,11.23,13.6,47.59359,-54.27349
2023-08-18 17:54:00+00:00,218.0,8.26,234.0,10.49,13.6,47.59359,-54.27349
2023-08-18 18:04:00+00:00,210.0,7.89,227.0,10.25,13.6,47.59359,-54.27349
2023-08-18 18:14:00+00:00,224.0,8.76,232.0,11.04,13.76,47.59359,-54.27349
2023-08-18 18:24:00+00:00,220.0,7.0,233.0,10.52,13.76,47.59359,-54.27349
2023-08-18 18:34:00+00:00,221.0,8.89,228.0,11.04,13.76,47.59359,-54.27349
2023-08-18 18:44:00+00:00,219.0,9.03,231.0,11.0,13.76,47.59359,-54.27349
2023-08-18 18:54:00+00:00,215.0,8.66,235.0,11.3,13.76,47.59359,-54.27349
2023-08-18 19:04:00+00:00,219.0,6.16,232.0,9.41,13.76,47.59359,-54.27349
2023-08-18 19:14:00+00:00,227.0,7.62,234.0,10.85,13.53,47.59359,-54.27349
2023-08-18 19:24:00+00:00,225.0,6.39,241.0,8.57,13.53,47.59359,-54.27349
2023-08-18 19:34:00+00:00,223.0,7.11,234.0,9.41,13.53,47.59359,-54.27349
2023-08-18 19:44:00+00:00,213.0,6.35,228.0,9.21,13.53,47.59359,-54.27349
2023-08-18 19:54:00+00:00,229.0,5.69,245.0,7.09,13.53,47.59359,-54.27349
2023-08-18 20:04:00+00:00,225.0,7.56,233.0,9.92,13.53,47.59359,-54.27349
2023-08-18 20:14:01+00:00,230.0,10.84,232.0,12.52,13.44,47.59359,-54.27349
2023-08-18 20:24:01+00:00,227.0,8.74,235.0,11.89,13.44,47.59359,-54.27349
2023-08-18 20:34:01+00:00,232.0,6.41,244.0,9.72,13.44,47.59359,-54.27349
2023-08-18 20:44:01+00:00,225.0,7.47,235.0,10.4,13.44,47.59359,-54.27349
2023-08-18 20:54:01+00:00,222.0,5.78,226.0,7.53,13.44,47.59359,-54.27349
2023-08-18 21:04:01+00:00,217.0,5.73,228.0,7.72,13.44,47.59359,-54.27349
2023-08-18 21:14:00+00:00,218.0,6.2,221.0,7.34,13.21,47.59359,-54.27349
2023-08-18 21:24:00+00:00,233.0,6.54,244.0,9.59,13.21,47.59359,-54.27349
2023-08-18 21:34:00+00:00,225.0,6.52,229.0,9.5,13.21,47.59359,-54.27349
2023-08-18 21:44:00+00:00,227.0,6.65,237.0,8.06,13.21,47.59359,-54.27349
2023-08-18 21:54:00+00:00,216.0,6.33,231.0,8.73,13.21,47.59359,-54.27349
2023-08-18 22:04:00+00:00,214.0,6.14,222.0,7.28,13.21,47.59359,-54.27349
2023-08-18 22:14:00+00:00,216.0,6.01,223.0,6.94,12.81,47.59359,-54.27349
2023-08-18 22:24:00+00:00,207.0,6.15,209.0,6.98,12.81,47.59359,-54.27349
2023-08-18 22:34:00+00:00,201.0,5.6,204.0,6.95,12.81,47.59359,-54.27349
2023-08-18 22:44:00+00:00,197.0,4.83,192.0,5.23,12.81,47.59359,-54.27349
2023-08-18 22:54:00+00:00,208.0,5.28,210.0,6.01,12.81,47.59359,-54.27349
2023-08-18 23:04:00+00:00,189.0,4.64,187.0,4.96,12.81,47.59359,-54.27349
2023-08-18 23:14:00+00:00,193.0,4.99,198.0,5.36,12.41,47.59359,-54.27349
2023-08-18 23:24:00+00:00,191.0,4.1,192.0,4.51,12.41,47.59359,-54.27349
2023-08-18 23:34:00+00:00,195.0,3.77,196.0,4.27,12.41,47.59359,-54.27349
2023-08-18 23:44:00+00:00,188.0,4.54,189.0,4.96,12.41,47.59359,-54.27349
2023-08-18 23:54:00+00:00,202.0,5.23,210.0,5.63,12.41,47.59359,-54.27349
